Location: *
(44.1392°N, 4.8079°E)
Time: 01:40:42
(UTC+00:00)

Daily predictions for brighter satellites

Satellite Brightness Start Highest point End
(mag) Time Altitude Azimuth Time Altitude Azimuth Time Altitude Azimuth
Cosmos 1758 Rocket 3.8 00:05:46 52° WSW 00:06:22 57° W 00:10:44 10° N
SL-16 R/B 3.0 00:05:46 26° WSW 00:08:36 44° WNW 00:14:03 10° NNE
BREEZE-M DEB (TANK) 4.4 00:10:27 19° NE 00:10:27 19° NE 00:11:26 10° ENE
Cosmos-2242 3.1 00:05:39 10° NNW 00:10:01 63° W 00:10:23 60° WSW
Cosmos 405 Rocket 3.1 00:10:16 50° E 00:10:16 50° E 00:13:42 10° NNE
Cosmos 2237 Rocket 4.5 00:07:38 10° W 00:11:27 18° NW 00:15:17 10° N
Cosmos 2369 Rocket 2.1 00:15:31 10° NNW 00:21:17 89° WSW 00:23:24 41° SSE
Cosmos 2279 Rocket 3.9 00:16:26 10° N 00:22:41 80° W 00:24:57 42° S
Cosmos 468 Rocket 3.9 00:22:37 51° SSW 00:23:58 85° WNW 00:29:14 10° NNE
Cosmos 1634 Rocket 4.5 00:20:05 10° NNW 00:26:07 48° W 00:28:13 35° SW
Cosmos 2058 3.2 00:27:05 50° ESE 00:27:34 53° E 00:31:34 10° NNE
PSLV R/B 4.1 00:24:43 10° N 00:28:56 51° WNW 00:29:51 43° WSW
ATLAS 5 CENTAUR R/B 2.9 00:29:08 23° ESE 00:29:08 23° ESE 00:32:18 10° ENE
USA 267 3.3 00:34:11 33° SSE 00:37:02 56° SW 00:43:27 10° NW
Cosmos 2263 4.1 00:31:33 10° NNW 00:37:16 90° ENE 00:39:42 36° SSE
Cosmos 1763 Rocket 3.6 00:35:46 44° SW 00:37:16 66° WNW 00:42:24 10° NNE
OE (NEXTSAT) 4.4 00:39:01 74° NNE 00:39:01 74° NNE 00:42:17 10° ENE
USA 307 3.4 00:39:14 43° SE 00:39:14 43° SE 00:43:06 10° ENE
Cosmos 2221 2.8 00:35:19 10° N 00:39:35 60° E 00:40:41 44° SE
MOZ.5/SAFIR/RUBIN 5/SL-8 4.2 00:39:14 33° SE 00:41:12 60° ENE 00:45:54 10° N
BREEZE-M R/B 3.5 00:41:41 31° SE 00:41:41 31° SE 00:44:47 10° ENE
Cosmos 2098 Rocket 3.6 00:40:13 39° SSE 00:41:57 61° E 00:46:21 10° NNE
NOSS 2-2 (D) 4.2 00:46:00 30° ESE 00:46:00 30° ESE 00:48:48 10° NE
Cosmos 1606 3.6 00:43:53 10° N 00:47:34 42° ENE 00:48:37 34° ESE
SL-6 R/B(2) 4.0 00:41:31 10° NW 00:49:55 57° WSW 00:50:15 56° SW
FALCON 9 DEB 4.1 00:48:49 10° NW 00:52:08 47° NNE 00:55:25 10° ESE
SJ 16-02 3.4 00:52:25 10° WNW 00:54:25 14° W 00:54:25 14° W
USA 308 2.9 00:54:37 55° SSE 00:55:00 58° SE 00:59:11 10° ENE
Resurs 1-4 Rocket 2.7 00:51:59 10° NNE 00:57:09 49° E 00:59:27 30° SSE
Meteor 2-2 Rocket 4.3 00:51:09 10° NNW 00:57:12 74° W 00:59:45 36° S
Helios 1B rocket 3.8 00:53:37 10° NE 00:57:14 29° E 00:58:31 24° SE
Nadezhda 4 Rocket 3.9 00:54:45 37° S 00:57:22 86° W 01:03:31 10° N
YAOGAN 11 4.1 00:59:31 50° SSW 01:00:29 65° WSW 01:04:58 10° NNW
X-37B 0.6 01:05:32 77° N 01:05:36 77° N 01:08:46 10° E
ADEOS II 3.6 01:02:10 10° NE 01:06:40 28° E 01:09:53 16° SE
Helios 1A 3.1 01:09:08 48° SW 01:09:51 56° W 01:13:59 10° NNW
Cosmos 1943 Rocket 3.7 01:06:27 10° WNW 01:10:04 18° W 01:10:22 18° WSW
USA 305 2.8 01:11:07 49° SW 01:12:14 85° SE 01:16:30 10° NE
Cosmos 1437 Rocket 3.2 01:08:46 10° NNW 01:12:25 41° W 01:12:36 41° WSW
NPP 4.1 01:08:54 10° NNE 01:14:13 55° E 01:16:56 28° SSE
Cosmos 540 Rocket 3.7 01:12:18 34° SW 01:14:16 57° WNW 01:19:20 10° NNE
SL-4 R/B 4.0 01:15:38 10° NW 01:18:49 25° N 01:21:51 10° ENE
CZ-2D R/B 2.1 01:14:01 10° NNE 01:19:15 74° ESE 01:21:41 32° S
Lacrosse 4 Rocket 1.7 01:15:57 10° NNW 01:20:01 64° ENE 01:22:58 17° SE
Cosmos 1943 3.8 01:18:33 26° WSW 01:21:24 46° WNW 01:26:52 10° NNE
NOSS 2-2 (E) 3.0 01:23:28 52° WSW 01:24:11 72° NW 01:27:55 10° NE
Cosmos 841 Rocket 3.9 01:24:11 31° SW 01:26:23 52° WNW 01:31:26 10° NNE
Meteor 2-3 Rocket 4.4 01:23:38 21° SSE 01:27:10 49° E 01:32:31 10° NNE
Cosmos 1242 Rocket 2.9 01:25:20 10° NNW 01:28:48 46° W 01:29:10 44° WSW
Lacrosse 5 rocket 4.1 01:26:24 10° NNW 01:28:59 18° NNE 01:31:36 10° ENE
Cosmos 1825 3.9 01:29:14 19° W 01:29:56 20° WNW 01:32:46 10° NNW
DELTA 2 R/B (1) 3.6 01:27:52 25° WSW 01:30:56 54° S 01:36:20 10° ESE
UNK 3.7 01:29:28 28° SSE 01:31:54 89° W 01:36:33 10° NNW
Aureole 3 Rocket 3.3 01:28:07 10° NNW 01:32:14 72° W 01:35:01 28° S
USA 306 3.0 01:32:46 30° WSW 01:34:44 69° NNW 01:38:59 10° NE
SL-16 R/B 2.5 01:31:09 21° S 01:35:25 78° WSW 01:41:38 10° NNW
ERBS 3.4 01:35:40 28° SE 01:35:52 28° SE 01:38:42 10° ENE
Meteor 2-19 Rocket 4.5 01:33:28 29° SSW 01:36:46 71° W 01:42:54 10° N
Cosmos 1937 Rocket 4.4 01:33:03 10° NW 01:37:44 32° W 01:39:08 28° SW
ARGOS Delta rocket 4.3 01:32:31 10° N 01:37:57 65° WNW 01:40:44 29° SSW
NOSS 2-2 (C) 3.1 01:37:08 42° WSW 01:38:07 67° NW 01:41:46 10° NNE
Cosmos 1092 Rocket 4.0 01:36:11 28° SSW 01:39:32 69° W 01:45:41 10° N
Cosmos 921 Rocket 3.9 01:44:24 26° WSW 01:46:00 36° WNW 01:49:54 10° N
GPS 2-04 Rocket1 4.1 01:47:23 22° SSE 01:47:23 22° SSE 01:49:38 10° SE
CZ-4C R/B 3.5 01:43:51 15° SSE 01:46:43 25° ESE 01:51:08 10° ENE
Tianhe-1 3.7 01:51:16 10° SE 01:51:16 10° SE 01:51:18 10° SE
ADEOS Rocket 3.4 01:43:40 10° SSE 01:50:58 81° ENE 01:57:35 10° NNW
SeaSat 1 4.2 01:50:18 10° NE 01:54:15 24° ESE 01:58:12 10° SSE
Cosmos 2151 3.1 01:53:31 31° SSW 01:55:22 60° W 01:59:32 10° N
USA 290 3.4 01:55:28 26° W 01:56:21 31° WNW 01:59:17 10° N
Okean 3 Rocket 4.3 01:53:27 17° SSE 01:56:37 48° E 02:00:51 10° NNE
Cosmos 1633 3.7 01:58:12 25° WSW 01:59:07 28° WNW 02:02:15 10° NNW
Cosmos 2298 Rocket 4.0 01:55:52 10° NNW 02:01:13 80° WSW 02:06:32 10° SSE
Cosmos 2369 Rocket 4.0 02:01:57 10° WNW 02:04:25 13° W 02:05:09 13° WSW
Cosmos 1809 Rocket 4.5 02:00:59 19° S 02:05:38 89° E 02:11:52 10° N
Cosmos 1271 Rocket 3.6 02:02:37 10° N 02:06:15 45° ENE 02:09:52 10° SSE
NOSS 5 (C) 4.4 02:07:14 10° NW 02:10:23 62° SW 02:14:19 10° SSE
Cosmos 1782 2.8 02:07:24 10° N 02:11:27 84° E 02:14:52 14° S
IRIDIUM 104 4.3 02:06:35 10° N 02:11:50 84° W 02:16:20 14° S
Cosmos 2150 Rocket 4.0 02:07:07 10° NNW 02:12:18 69° WSW 02:17:32 10° S
ATLAS 5 CENTAUR R/B 2.5 02:10:38 17° WSW 02:13:16 36° NW 02:17:25 10° NNE
Cosmos 1125 Rocket 3.4 02:12:02 10° NNW 02:17:19 76° WSW 02:22:35 10° SSE
Cosmos 2292 Rocket 2.9 02:16:42 29° SW 02:17:51 49° W 02:20:45 10° N
USA 307 4.0 02:15:18 11° W 02:19:04 40° NNW 02:23:06 10° NE
CZ-4C R/B 3.7 02:16:19 10° SSE 02:19:41 53° ENE 02:23:05 10° N
IRIDIUM 114 4.3 02:15:46 10° N 02:20:59 70° W 02:25:28 14° S
CENTAUR R/B 4.2 02:14:22 10° NNW 02:22:11 52° NE 02:30:46 10° ESE
Meteor 1-29 3.3 02:18:54 10° N 02:22:13 49° WNW 02:24:01 23° SW
MSX 4.5 02:17:20 10° NNE 02:22:59 53° E 02:28:35 10° S
ARIANE 5 R/B 3.7 02:21:20 10° NNE 02:26:00 38° E 02:30:40 10° SSE
FALCON 9 DEB 4.1 02:26:00 10° WNW 02:28:51 25° SW 02:31:41 10° SSE
IRIDIUM 103 4.5 02:24:58 10° N 02:30:06 57° W 02:34:35 13° SSW
Cosmos 1833 Rocket 3.9 02:25:04 10° S 02:30:10 36° ESE 02:35:17 10° NE
Helios 1B rocket 3.9 02:29:01 10° NNW 02:32:20 24° WNW 02:34:49 14° WSW
Meteor 1-28 Rocket 3.3 02:29:50 14° S 02:32:57 55° W 02:36:42 10° NNW
USA 308 4.3 02:31:16 10° W 02:35:10 34° NNW 02:39:05 10° NE
Cosmos 1553 Rocket 4.2 02:30:13 10° NNW 02:36:18 53° W 02:42:14 10° SSW
Resurs 1-4 Rocket 3.5 02:32:26 10° N 02:36:39 25° WNW 02:40:32 11° WSW
ASTEX 1 3.4 02:31:50 10° S 02:36:47 87° W 02:41:45 10° N
Meteor 2-21 Rocket 4.5 02:31:02 12° S 02:36:50 82° W 02:43:04 10° N
X-37B 0.9 02:39:07 10° W 02:42:09 42° SSW 02:45:10 10° SE
S3M 4.0 02:36:55 10° NNW 02:43:02 69° W 02:49:13 10° S
ADEOS II 2.8 02:41:33 10° N 02:46:27 40° WNW 02:50:49 13° SW
Cosmos 1500 Rocket 4.5 02:42:39 10° SSE 02:46:47 46° E 02:50:55 10° NNE
Cosmos 1328 Rocket 3.7 02:43:14 10° NNW 02:47:32 58° W 02:51:50 10° S
FALCON 9 DEB 2.7 02:46:40 10° WNW 02:49:47 71° SW 02:52:53 10° SE
Cosmos 1743 Rocket 4.4 02:47:16 10° S 02:51:31 51° E 02:55:50 10° NNE
Cosmos 2082 Rocket 3.9 02:50:32 10° SSE 02:55:16 29° ESE 03:00:01 10° NE
SL-08 R/B 3.6 02:51:43 10° SSE 02:56:21 74° ENE 03:01:07 10° N
Lacrosse 4 Rocket 3.2 02:56:33 10° W 02:58:06 12° WSW 02:59:10 11° WSW
CZ-3B R/B 2.1 02:54:16 10° NW 02:58:16 53° NNE 03:00:28 10° ESE
CZ-2D R/B 4.0 02:55:30 10° NNW 02:58:42 17° WNW 03:01:53 10° W
SL-4 R/B 2.3 02:55:20 10° NW 02:58:53 58° NNE 03:02:16 10° ESE
IDEFIX/ARIANE 42P 2.8 02:53:57 10° N 02:59:05 56° WNW 03:04:09 10° SSW
deb Kosmos-1763 4.0 03:00:03 11° SSW 03:03:24 70° WNW 03:06:56 10° NNE
FALCON 9 DEB 3.4 03:02:04 10° WNW 03:04:55 34° SW 03:07:43 10° SSE
CZ-2C R/B 3.4 03:01:25 10° NNE 03:06:09 44° E 03:10:41 10° S
BREEZE-M DEB (TANK) 1.7 03:04:25 10° WNW 03:06:38 76° NNE 03:10:07 10° ESE
Cosmos 1862 3.7 03:03:14 10° SSW 03:07:10 51° WNW 03:11:08 10° N
Cosmos 1151 Rocket 4.1 03:04:15 10° NNW 03:07:50 26° W 03:11:23 10° SW
Lacrosse 5 rocket 1.0 03:04:53 10° NW 03:08:30 87° NE 03:12:15 10° SE
ERBS 3.6 03:09:00 10° W 03:11:54 30° NNW 03:14:49 10° NNE
USA 281 3.3 03:05:40 10° S 03:12:05 56° WSW 03:18:32 10° NNW
Cosmos 2228 Rocket 3.8 03:07:48 10° N 03:12:15 58° E 03:16:38 10° SSE
FALCON 9 DEB 3.3 03:10:20 10° WNW 03:13:16 38° SW 03:16:10 10° SSE
Genesis I 4.1 03:10:08 10° NNW 03:14:09 58° NE 03:18:08 10° SE
FALCON 9 DEB 3.7 03:12:47 10° WNW 03:15:32 29° SW 03:18:15 10° SSE
Cosmos 44 3.7 03:10:35 10° SSW 03:15:49 73° ESE 03:21:16 10° NE
DELTA 2 R/B (1) 4.0 03:11:45 10° W 03:16:58 42° SSW 03:22:10 10° SE
Cosmos 1515 Rocket 3.9 03:15:39 10° NNW 03:19:54 47° W 03:24:09 10° SSW
SL-16 R/B 4.3 03:17:48 10° WSW 03:19:58 12° W 03:22:08 10° WNW
Cosmos 2266 Rocket 4.4 03:14:15 10° SSW 03:20:05 46° WNW 03:25:54 10° N
COSMOS 2406 3.3 03:16:04 10° SSW 03:21:44 89° ESE 03:27:26 10° NNE
ALOS 3.7 03:17:25 10° NNE 03:21:46 37° E 03:26:06 10° SSE
Cosmos 1408 Rocket 4.3 03:17:51 10° SW 03:22:01 39° WNW 03:26:15 10° N
GPS 2-04 Rocket1 4.3 03:22:32 10° WSW 03:25:10 17° SSW 03:27:44 10° SSE
Cosmos 1656 4.0 03:22:13 10° NW 03:27:41 48° WSW 03:33:05 10° S
